Volver al catálogo

STARLINK-32837

ActivoComunicacionesVLEO
NORAD 62812·PAYLOAD·🇺🇸 United States

Lanzado Jan 24, 2025 desde Vandenberg Space Force Base

Loading…

Próximos Pases (próximas 24 horas)

TLE

ActualizadoSource: CelesTrak SupGP

Época: Sep 14, 2026, 20:48 UTC

1 62812C 25018G   26257.86715278 -.00052475  00000+0 -15499-2 0  2572
2 62812  53.1571 148.3457 0001307  92.3566  76.8654 15.34425703    18

Sigue STARLINK-32837 en tiempo real con AllMySat

Download on the App Store